This is the latest recevied weather packets stored in our database for station/object DH0GMA. If no packets are shown the sender has not sent any weather packets the latest 10 day(s).
| Time | Temp. | Humidity | Pressure | Rain* | Wind** | Luminosity | Snow |
|---|---|---|---|---|---|---|---|
| 1777914302 | 21.11° C | 51% | 1010.2 hPa | 0 mm | - | - | - |
| 1777913702 | 21.11° C | 51% | 1010.2 hPa | 0 mm | - | - | - |
| 1777913102 | 21.11° C | 50% | 1010.2 hPa | 0 mm | - | - | - |
| 1777912504 | 21.67° C | 50% | 1010.2 hPa | 0 mm | - | - | - |
| 1777911904 | 21.67° C | 49% | 1010.2 hPa | 0 mm | - | - | - |
| 1777911304 | 21.67° C | 49% | 1010.2 hPa | 0 mm | - | - | - |
| 1777910703 | 21.67° C | 49% | 1010.2 hPa | 0 mm | - | - | - |
| 1777910103 | 21.67° C | 49% | 1010.2 hPa | 0 mm | - | - | - |
| 1777909503 | 21.67° C | 50% | 1010.2 hPa | 0 mm | - | - | - |
| 1777908903 | 21.67° C | 50% | 1010.1 hPa | 0 mm | - | - | - |
| 1777908302 | 21.67° C | 49% | 1010.1 hPa | 0 mm | - | - | - |
| 1777907704 | 22.22° C | 49% | 1010.3 hPa | 0 mm | - | - | - |
| 1777907104 | 22.22° C | 49% | 1010.2 hPa | 0 mm | - | - | - |
| 1777906504 | 22.22° C | 48% | 1010.2 hPa | 0 mm | - | - | - |
| 1777905903 | 22.22° C | 50% | 1010.3 hPa | 0 mm | - | - | - |
| 1777905304 | 22.22° C | 45% | 1010.3 hPa | 0 mm | - | - | - |
| 1777904703 | 22.78° C | 47% | 1010.4 hPa | 0 mm | - | - | - |
| 1777904103 | 22.78° C | 48% | 1010.4 hPa | 0 mm | - | - | - |
| 1777903503 | 22.78° C | 46% | 1010.5 hPa | 0 mm | - | - | - |
| 1777902903 | 22.78° C | 48% | 1010.6 hPa | 0 mm | - | - | - |
| 1777902303 | 22.22° C | 47% | 1010.7 hPa | 0 mm | - | - | - |
| 1777901703 | 22.22° C | 46% | 1010.8 hPa | 0 mm | - | - | - |
| 1777901103 | 22.22° C | 49% | 1010.8 hPa | 0 mm | - | - | - |
| 1777900502 | 22.22° C | 52% | 1011 hPa | 0 mm | - | - | - |
| 1777899902 | 22.22° C | 48% | 1011 hPa | 0 mm | - | - | - |
* Rain latest hour (hover to see other rain measurements)
** Current wind speed in m/s (hover to see current wind gust speed)